www.pogodaiklimat.ru

Погода и климат >> Архив погоды >> Австралия >> Новый Южный Уэльс >> Хей


ПОГОДА в Хее

  • Прогноз погоды в Хее
  • Монитор погоды в Хее

АРХИВ ПОГОДЫ в Хее

Время (UTC), дата Ветер
(напр.,м/с)
 
Видим.   Явления Облачность Т
(С)
Тd
(С)
f
(%)
Тe
(С)
Тes
(С)
Комфортность P
(гПа)
Po
(гПа)
Тmin
(С)
Tmax
(С)
R
(мм)
R24
(мм)
S
(см)
13 9.07 С 3 н/о н/о +6.0 +5.9 99 +2 +2 1020.4 1009.1
14 9.07 С 3 н/о н/о +5.5 +5.4 99 +2 +2 1020.1 1008.8 +15.5
16 9.07 С 4 н/о н/о +4.6 +4.5 99 0 0 1019.2 1007.9
17 9.07 С 3 н/о н/о +4.1 +4.0 99 0 0 1018.8 1007.5
19 9.07 С 4 н/о н/о +4.7 +4.6 99 0 0 1018.0 1006.7
20 9.07 С 4 н/о {туман} н/о +4.2 +4.1 99 -0 -0 1018.0 1006.7
22 9.07 С 5 н/о н/о +5.1 +5.0 99 0 0 1018.1 1006.8
23 9.07 С 6 н/о {туман} н/о +7.7 +6.8 94 +3 +3 1018.1 1006.8
01 10.07 С 9 н/о н/о +12.4 +8.7 78 +9 +9 1016.8 1005.6
02 10.07 С 9 н/о н/о +14.4 +8.4 67 +12 +12 1015.8 1004.6 +3.6
04 10.07 С 10 н/о н/о +15.7 +7.2 57 +14 +14 1012.7 1001.5
05 10.07 С 9 н/о н/о +16.3 +7.8 57 +15 +15 1012.3 1001.1
07 10.07 С 9 н/о н/о +15.0 +6.8 58 +13 +13 1010.8 999.6
08 10.07 С 8 н/о н/о +13.6 +6.9 64 +11 +11 1010.5 999.3
10 10.07 С 8 н/о н/о +11.7 +7.4 75 +8 +8 1010.2 999.0
11 10.07 С 10 н/о н/о +12.8 +7.7 71 +10 +10 1009.4 998.2
13 10.07 С 11 н/о н/о +13.9 +5.0 55 +11 +11 1008.2 997.1
14 10.07 СЗ 11 н/о н/о +13.6 +4.7 55 +11 +11 1008.1 997.0 +16.6
16 10.07 З 7 н/о н/о +9.9 +6.6 80 +6 +6 1010.5 999.3
17 10.07 З 8 н/о н/о +9.8 +6.9 82 +6 +6 1011.0 999.8
19 10.07 СЗ 6 н/о н/о +7.9 +6.4 90 +4 +4 1011.8 1000.6
20 10.07 СЗ 6 н/о н/о +7.4 +5.4 87 +3 +3 1012.6 1001.4
22 10.07 СЗ 5 н/о н/о +7.3 +5.8 90 +3 +3 1014.1 1002.9
23 10.07 СЗ 7 н/о н/о +9.0 +6.4 84 +5 +5 1015.0 1003.8
01 11.07 СЗ 10 н/о н/о +13.1 +7.1 67 +10 +10 1015.1 1003.9
02 11.07 СЗ 9 н/о н/о +14.5 +7.1 61 +12 +12 1014.6 1003.4 +7.1
04 11.07 З 10 н/о н/о +15.2 +7.3 59 +13 +13 1014.1 1002.9
05 11.07 СЗ 9 н/о н/о +15.4 +7.2 58 +13 +13 1013.9 1002.7
07 11.07 СЗ 8 н/о н/о +15.3 +7.8 61 +13 +13 1014.5 1003.3
08 11.07 СЗ 6 н/о н/о +13.9 +8.1 68 +12 +12 1015.1 1003.9
10 11.07 С 6 н/о н/о +11.1 +7.8 80 +8 +8 1016.1 1004.9
11 11.07 СЗ 5 н/о н/о +10.3 +7.7 84 +7 +7 1016.1 1004.9
13 11.07 СЗ 5 н/о н/о +10.0 +7.8 86 +7 +7 1016.7 1005.5
14 11.07 СЗ 5 н/о н/о +10.6 +8.0 84 +8 +8 1016.3 1005.1 +16.3
16 11.07 СЗ 5 н/о н/о +10.6 +8.7 88 +8 +8 1015.6 1004.4
17 11.07 СЗ 5 н/о н/о +10.7 +8.6 87 +8 +8 1015.3 1004.1
19 11.07 СЗ 7 н/о н/о +11.5 +9.4 87 +8 +8 1014.4 1003.2
20 11.07 СЗ 7 н/о н/о +11.6 +9.2 85 +8 +8 1014.3 1003.1
22 11.07 СЗ 7 н/о н/о +11.7 +8.9 83 +8 +8 1014.8 1003.6
23 11.07 СЗ 8 н/о н/о +12.4 +9.2 81 +9 +9 1014.8 1003.6
01 12.07 СЗ 10 н/о н/о +13.9 +9.3 74 +11 +11 1014.4 1003.2
02 12.07 СЗ 12 н/о н/о +15.2 +8.9 66 +13 +13 1013.5 1002.3 +9.6
04 12.07 СЗ 9 н/о н/о +15.4 +7.9 61 +13 +13 1011.8 1000.6
05 12.07 СЗ 12 н/о н/о +15.6 +7.4 58 +13 +13 1011.5 1000.3
07 12.07 СЗ 9 н/о н/о +15.0 +7.1 59 +13 +13 1011.3 1000.1
08 12.07 СЗ 8 н/о н/о +14.4 +6.7 60 +12 +12 1011.0 999.8
10 12.07 СЗ 8 н/о н/о +13.8 +6.4 61 +11 +11 1011.2 1000.0
11 12.07 З 8 н/о в посл. час дождь {туман} н/о +11.8 +8.8 82 +9 +9 1011.8 1000.6
13 12.07 ЮЗ 12 н/о н/о +8.8 +7.1 89 +3 +3 1013.7 1002.5
14 12.07 З 6 н/о в посл. час дождь {туман} н/о +8.6 +7.4 92 +5 +5 1013.6 1002.4 +16.5
16 12.07 З 5 н/о н/о +7.0 +5.8 92 +3 +3 1014.3 1003.1
17 12.07 З 6 н/о {туман} н/о +6.6 +5.4 92 +2 +2 1015.1 1003.9
19 12.07 З 6 н/о н/о +5.7 +4.8 94 +1 +1 1015.9 1004.7
20 12.07 З 6 н/о н/о +5.4 +4.7 95 0 0 1016.8 1005.6
22 12.07 З 7 н/о н/о +5.3 +4.3 93 -0 -0 1018.4 1007.1
23 12.07 З 7 н/о н/о +6.8 +5.0 88 +2 +2 1019.6 1008.3
01 13.07 З 10 н/о н/о +9.2 +5.8 79 +5 +5 1021.3 1010.0
02 13.07 З 10 н/о н/о +10.8 +6.0 72 +7 +7 1021.4 1010.1 +5.1
04 13.07 З 10 н/о н/о +11.3 +5.2 66 +8 +8 1021.7 1010.4
05 13.07 З 8 н/о н/о +11.3 +5.0 65 +8 +8 1022.1 1010.8
07 13.07 З 8 н/о н/о +10.3 +4.5 67 +7 +7 1023.6 1012.3
08 13.07 З 5 н/о н/о +8.7 +4.7 76 +5 +5 1024.4 1013.1
10 13.07 З 4 н/о н/о +6.5 +4.5 87 +3 +3 1025.8 1014.5
11 13.07 З 5 н/о н/о +6.1 +4.6 90 +2 +2 1026.7 1015.3
13 13.07 З 5 н/о н/о +5.0 +4.1 94 0 0 1027.2 1015.8
14 13.07 З 5 н/о н/о +4.6 +3.7 94 -0 -0 1026.8 1015.4 +12.6
17 13.07 З 5 н/о н/о +3.3 +3.0 98 -2 -2 1026.4 1015.1
19 13.07 З 4 н/о н/о +3.3 +3.2 99 -2 -2 1026.5 1015.2
20 13.07 СЗ 4 н/о н/о +2.7 +2.6 99 -2 -2 1026.5 1015.2
22 13.07 СЗ 4 н/о н/о +1.4 +1.3 99 -4 -4 1027.7 1016.3
23 13.07 СЗ 5 н/о {туман} н/о +4.7 +4.3 97 -0 -0 1028.3 1016.9
01 14.07 З 7 н/о н/о +9.6 +6.7 82 +6 +6 1028.0 1016.6
02 14.07 З 8 н/о н/о +10.8 +6.6 75 +7 +7 1027.2 1015.8 +0.9
04 14.07 З 10 н/о н/о +12.0 +7.1 72 +8 +8 1024.4 1013.1
05 14.07 З 8 н/о н/о +12.0 +7.7 75 +9 +9 1023.8 1012.5
07 14.07 З 7 н/о н/о +11.2 +8.6 84 +8 +8 1023.6 1012.3
08 14.07 СЗ 7 н/о н/о +9.8 +9.2 96 +6 +6 1023.5 1012.2
10 14.07 З 8 н/о н/о +10.7 +8.5 86 +7 +7 1023.1 1011.8
11 14.07 З 9 н/о н/о +11.1 +8.1 82 +7 +7 1022.7 1011.4
13 14.07 З 10 н/о н/о +10.4 +8.2 86 +6 +6 1021.6 1010.3
14 14.07 З 10 н/о н/о +9.3 +9.2 99 +4 +4 1021.9 1010.6 +12.7
16 14.07 З 7 н/о н/о +8.3 +8.2 99 +4 +4 1021.4 1010.1
17 14.07 З 8 н/о {туман} н/о +8.0 +7.2 95 +3 +3 1021.5 1010.2
19 14.07 З 6 н/о н/о +7.7 +7.6 99 +3 +3 1022.3 1011.0
20 14.07 З 7 н/о н/о +7.9 +7.3 96 +3 +3 1022.7 1011.4
22 14.07 З 5 н/о н/о +6.7 +6.6 99 +2 +2 1024.5 1013.2
23 14.07 З 8 н/о н/о +8.4 +8.3 99 +4 +4 1024.5 1013.2
01 15.07 ЮЗ 8 н/о н/о +11.5 +8.7 83 +8 +8 1025.7 1014.4
02 15.07 ЮЗ 8 н/о н/о +12.9 +9.0 77 +10 +10 1025.4 1014.1 +6.7
04 15.07 ЮЗ 8 н/о н/о +13.2 +7.6 69 +11 +11 1024.5 1013.2
05 15.07 ЮЗ 8 н/о н/о +13.2 +7.9 70 +11 +11 1024.7 1013.4
07 15.07 ЮЗ 5 н/о н/о +12.3 +8.4 77 +10 +10 1025.5 1014.2
08 15.07 З 4 н/о н/о +10.9 +8.7 86 +8 +8 1025.4 1014.1
10 15.07 З 5 н/о н/о +11.6 +9.2 85 +9 +9 1026.8 1015.4
11 15.07 З 6 н/о н/о +11.1 +10.0 93 +8 +8 1027.2 1015.8
13 15.07 З 3 н/о н/о +10.4 +10.2 99 +8 +8 1026.7 1015.3
14 15.07 З 3 н/о н/о +10.3 +10.1 99 +8 +8 1026.3 1015.0 +14.4
16 15.07 З 4 н/о н/о +10.3 +9.5 95 +8 +8 1025.3 1014.0
17 15.07 З 5 н/о н/о +9.0 +8.9 99 +5 +5 1024.9 1013.6
19 15.07 З 4 н/о н/о +8.9 +8.8 99 +6 +6 1024.5 1013.2
20 15.07 ЮЗ 5 н/о н/о +9.9 +9.8 99 +7 +7 1024.9 1013.6
22 15.07 З 5 н/о н/о +9.4 +9.3 99 +6 +6 1026.3 1015.0
23 15.07 З 7 н/о н/о +9.7 +9.6 99 +6 +6 1026.9 1015.5
01 16.07 ЮЗ 8 н/о н/о +12.3 +9.5 83 +9 +9 1026.8 1015.4
02 16.07 ЮЗ 7 н/о н/о +12.1 +8.6 79 +9 +9 1026.0 1014.7 +8.1
04 16.07 ЮЗ 7 н/о н/о +12.5 +8.4 76 +10 +10 1025.1 1013.8
05 16.07 ЮЗ 7 н/о н/о +12.5 +7.8 73 +10 +10 1025.0 1013.7
07 16.07 З 6 н/о н/о +12.2 +7.9 75 +10 +10 1024.9 1013.6
10 16.07 З 5 н/о н/о +11.6 +7.7 77 +9 +9 1025.5 1014.2
11 16.07 З 5 н/о н/о +11.5 +7.8 78 +9 +9 1025.4 1014.1

 

Местоположение метеостанции Хей (Новый Южный Уэльс, Австралия): широта -34.53 долгота 144.83 высота над уровнем моря 92 м.

В архиве по умолчанию представлена погода в Хее за последнюю неделю. Архивные данные за месяц целиком и за предыдущие месяцы, начиная с января 2011 года, Вы можете получить, выбрав интересующий диапазон дат из раскрывающегося списка и нажав кнопку "Ввод!".


*Определитесь, кто Вы:
робот инопланетянин человек

Внимание! Время в таблицах - всемирное. Для получения местного времени необходимо прибавить поправку, которая равна 10 ч.

Смотрите также архив погоды в соседних городах и на ближайших метеорологических станциях:

Погода в Дениликине (Новый Южный Уэльс, Австралия) (116 км)
Погода в Гриффите (Новый Южный Уэльс, Австралия) (118 км)
Погода в Янко (Новый Южный Уэльс, Австралия) (147 км)
Погода в Суон-Хилле (Виктория, Австралия) (152 км)
Погода в Наррандере (Новый Южный Уэльс, Австралия) (156 км)
Погода в Айванхо (Новый Южный Уэльс, Австралия) (189 км)
Погода в Ярравонге (Виктория, Австралия) (198 км)
Погода в Кайабраме (Виктория, Австралия) (201 км)
Погода в Татуре (Виктория, Австралия) (215 км)
Погода в Шеппартоне (Виктория, Австралия) (218 км)

Пояснения к столбцам:

Ветер - указаны скорость ветра в м/с - средняя за 10 мин, порывы в срок и между сроками (в фигурных скобках) и направление, откуда дует ветер: С - северный, СВ - северо-восточный, В - восточный, ЮВ - юго-восточный, Ю - южный, ЮЗ - юго-западный, З - западный, СЗ - северо-западный.
Видимость - горизонтальная дальность видимости в метрах или километрах. При видимости от 1 до 10 км при отсутствии осадков обычно наблюдается дымка, при ухудшении видимости до 1 км и менее - туман. В сухую погоду видимость может ухудшаться дымом, пылью или мглою.
Явления - указаны атмосферные явления, наблюдавшиеся в срок или в последний час перед сроком; фигурными скобками обозначены явления, наблюдавшиеся между сроками (за 1-3 часа до срока); квадратными скобками обозначены град или гололедные отложения с указанием их диаметра в мм.
Облачность - указаны через наклонную черту общая и нижняя облачность в баллах и высота нижней границы облаков в метрах; квадратными скобками обозначены формы облаков: Ci - перистые, Cs - перисто-слоистые, Cc - перисто-кучевые, Ac - высококучевые, As - высокослоистые, Sc - слоисто-кучевые, Ns - слоисто-дождевые, Cu - кучевые, Cb - кучево-дождевые. Подробнее классификацию облаков см. в Атласе облаков (PDF).
T - Температура воздуха - температура, измеренная на высоте 2 м над землей.
Td - Температура точки росы - температура, при понижении до которой содержащийся в воздухе водяной пар достигнет насыщения.
f - Относительная влажность воздуха - влажноcть воздуха, измеренная на высоте 2 м над землей.
Te - Эффективная температура - температура, которую ощущает одетый по сезону человек в тени. Характеристика душности погоды. При расчете учитывается влияние влажности воздуха и скорости ветра на теплоощущения человека.
Tes - Эффективная температура на солнце - температура, которую ощущает человек, с поправкой на солнечный нагрев. Характеристика знойности погоды. Зависит от высоты солнца над горизонтом, облачности и скорости ветра. Ночью, в пасмурную погоду, а также при ветре 12 м/с и более поправка равна нулю.
P - Атмосферное давление - приведенное к уровню моря атмосферное давление.
Po - Атмосферное давление - измеренное на уровне метеостанции атмосферное давление.
Tmin - Минимальная температура - минимум температуры воздуха на высоте 2 м над землей.
Tmax - Максимальная температура - максимум температуры воздуха на высоте 2 м над землей.
R - Количество осадков - Количество выпавших осадков за период времени, мм. При наведении курсора мыши на число - период времени, за который выпало указанное количество осадков.
R24 - Количество осадков - Количество выпавших осадков за 24 часа, мм.
S - Снежный покров - Высота снежного покрова, см. При наведении курсора мыши на число - состояние снежного покрова и степень покрытия местности в баллах.